Каракол

Киргизия     42°29′28″N   78°23′58″E
В апреле 2022 года жителям России запретили посещать сайт meteo.paraplan.net по решению Генеральной прокуратуры. Аудитория сайта уменьшилась в 10 раз. Владельцы сайта не видят смысла в поддержке погодного сервера в таких условиях. Сайт будет закрыт в октябре.
темп.,
°C
ветер,
м/с
пор.,
м/с
влажн.,
%
обл.,
%
осадки,
мм/ч
давл.,
гПа
погр.,
м
26 сентября, пн
пн2600:00+11ююв22343 0.0 101814
03:00+10ююв32290 0.0 101817
06:00+10ююв33310 0.0 101918
09:00+15сз21230 0.0 1018393
12:00+19зсз44180 0.0 10171660
15:00+20зсз44190 0.0 10151669
18:00+16зсз11280 0.0 101514
21:00+12юв22340 0.0 101711
27 сентября, вт
вт2700:00+11ю22350 0.0 101711
03:00+10ю12372 0.0 101610
06:00+9ююв12395 0.0 101711
09:00+15зсз22283 0.0 1016506
12:00+18зсз45250 0.0 10151823
15:00+19сз45210 0.0 10121870
18:00+15сз22290 0.0 101317
21:00+10юв23400 0.0 101523
28 сентября, ср
ср2800:00+9ю12420 0.0 101414
03:00+8ююз12465 0.0 101412
06:00+7ю12500 0.0 101511
09:00+12сз21400 0.0 1014370
12:00+16сз43325 0.0 10121649
15:00+17сз4328100 0.0 10091675
18:00+14ссв343379 0.0 1011141
21:00+9вюв1344100 0.0 101345
29 сентября, чт
чт2900:00+10ююз1244100 0.0 101427
03:00+8ююз22495 0.0 101416
06:00+7ююз12540 0.0 101410
09:00+11ссз114410 0.0 1013352
12:00+15сз4335100 0.0 10101253
15:00+16зсз4430100 0.0 10081209
18:00+13св113797 0.0 101019
21:00+8юв134931 0.0 101336
30 сентября, пт
пт3000:00+8ююз12486 0.0 101313
03:00+7ююз1252100 0.0 101312
06:00+8ююв2256100 0.0 101217
09:00+11сз224467 0.0 1012329
12:00+15зсз4527100 0.0 10091472
15:00+15сз4528100 0.0 10081601
18:00+11ссв2339100 0.1 1011203
21:00+7с1460100 0.1 1016159